Date String (YYYY-MM-DD hh:mm:ss) UTC,Instrument flags,Ambient pressure (hPa),Sample flow (lpm),Bypass flow (lpm),Sample temperature (°C),Ambient temperature (°C),ASC tube jacket temperature (°C),LED temperature (°C),Box temperature (°C),Sample RH (%),Span deviation,Mass concentration (μg/m³),Mass concentration (μg/m³),Mass concentration (μg/m³)
DateTimeUTC,F1_M11,P_M11,Q1_M11,Q2_M11,T1_M11,T2_M11,T3_M11,T4_M11,T5_M11,U1_M11,ZSPAN_M11,X2_M11,X0_M11,X1_M11
2022-06-04 00:00:00,,0822.9,5.01,0.00,29.6,27.5,00.0,38.3,31.3,22.6,-000.7,0006.34,0014.45,0005.29
2022-06-04 00:01:00,,0822.9,5.00,0.00,29.5,27.5,00.0,38.3,31.2,21.1,-000.6,0006.07,0014.74,0005.04
2022-06-04 00:02:00,,0823.0,4.99,0.00,29.5,27.5,00.0,38.3,31.2,22.0,-000.0,0005.81,0014.82,0004.80
2022-06-04 00:03:00,,0823.0,5.01,0.00,29.4,27.7,00.0,38.3,31.3,22.3,0000.0,0005.53,0014.72,0004.53
2022-06-04 00:04:00,,0822.9,4.99,0.00,29.4,27.8,00.0,38.3,31.3,22.9,0000.0,0005.24,0014.33,0004.26
2022-06-04 00:05:00,,0823.0,4.99,0.00,29.4,27.9,00.0,38.3,31.3,23.3,0000.0,0004.98,0013.69,0004.00
2022-06-04 00:06:00,,0823.0,5.01,0.00,29.4,28.0,00.0,38.3,31.3,22.8,0000.0,0004.71,0012.90,0003.73
2022-06-04 00:07:00,,0823.0,5.00,0.00,29.4,28.1,00.0,38.3,31.3,22.9,0000.0,0004.37,0012.57,0003.48
2022-06-04 00:08:00,,0822.9,4.99,0.00,29.5,28.2,00.0,38.3,31.4,22.9,0000.0,0004.06,0012.09,0003.21
2022-06-04 00:09:00,,0822.7,4.99,0.00,29.5,28.3,00.0,38.3,31.4,23.2,0000.0,0003.86,0012.07,0002.97
2022-06-04 00:10:00,,0822.6,4.99,0.00,29.5,28.4,00.0,38.3,31.4,24.4,0000.0,0003.76,0011.73,0002.79
2022-06-04 00:11:00,,0822.5,5.01,0.00,29.5,28.5,00.0,38.4,31.5,21.8,0000.0,0003.64,0010.82,0002.64
2022-06-04 00:12:00,,0822.3,5.00,0.00,29.5,28.5,00.0,38.4,31.5,22.0,0000.0,0003.60,0009.91,0002.61
2022-06-04 00:13:00,,0822.1,4.99,0.00,29.6,28.6,00.0,38.4,31.5,23.8,0000.0,0003.60,0009.11,0002.61
2022-06-04 00:14:00,,0821.9,4.99,0.00,29.6,28.7,00.0,38.4,31.6,22.6,0000.0,0003.56,0008.78,0002.59
2022-06-04 00:15:00,,0821.7,5.00,0.00,29.6,28.7,00.0,38.4,31.6,21.6,0000.0,0003.54,0009.00,0002.58
2022-06-04 00:16:00,,0821.4,5.01,0.00,29.7,28.6,00.0,38.4,31.6,21.6,0000.0,0003.45,0009.18,0002.55
2022-06-04 00:17:00,,0821.1,5.00,0.00,29.6,27.7,00.0,38.4,31.4,20.7,0000.0,0003.37,0008.92,0002.50
2022-06-04 00:18:00,,0821.0,5.01,0.00,29.6,27.3,00.0,38.3,31.3,22.2,0000.0,0003.31,0008.57,0002.46
2022-06-04 00:19:00,,0821.0,5.00,0.00,29.5,27.3,00.0,38.3,31.2,20.0,0000.0,0003.31,0007.81,0002.44
2022-06-04 00:20:00,,0821.0,5.00,0.00,29.4,27.3,00.0,38.3,31.2,20.5,0000.0,0003.25,0006.96,0002.40
2022-06-04 00:21:00,,0821.0,5.00,0.00,29.4,27.5,00.0,38.3,31.2,24.1,0000.0,0003.20,0006.67,0002.38
2022-06-04 00:22:00,,0821.0,5.01,0.00,29.4,27.6,00.0,38.3,31.2,24.6,0000.0,0003.21,0006.71,0002.39
2022-06-04 00:23:00,,0821.1,4.99,0.00,29.4,27.8,00.0,38.3,31.2,24.1,0000.0,0003.23,0006.92,0002.40
2022-06-04 00:24:00,,0821.1,4.99,0.00,29.4,27.9,00.0,38.3,31.3,24.2,0000.0,0003.23,0007.00,0002.39
2022-06-04 00:25:00,,0821.2,4.99,0.00,29.4,28.1,00.0,38.3,31.3,24.8,0000.0,0003.24,0007.12,0002.40
2022-06-04 00:26:00,,0821.2,5.02,0.00,29.4,28.2,00.0,38.3,31.3,24.5,0000.0,0003.25,0007.21,0002.43
2022-06-04 00:27:00,,0821.3,4.99,0.00,29.4,28.3,00.0,38.3,31.4,24.6,0000.0,0003.28,0007.13,0002.43
2022-06-04 00:28:00,,0821.3,5.00,0.00,29.5,28.4,00.0,38.3,31.4,23.9,0000.0,0003.28,0007.26,0002.43
2022-06-04 00:29:00,,0821.3,4.99,0.00,29.5,28.5,00.0,38.3,31.4,24.1,0000.0,0003.29,0007.33,0002.42
2022-06-04 00:30:00,,0821.4,5.00,0.00,29.5,28.5,00.0,38.3,31.5,24.3,0000.0,0003.26,0007.28,0002.39
2022-06-04 00:31:00,,0821.4,5.00,0.00,29.6,28.6,00.0,38.4,31.5,24.9,0000.0,0003.23,0007.17,0002.37
2022-06-04 00:32:00,,0821.4,5.01,0.00,29.6,28.7,00.0,38.4,31.6,24.4,0000.0,0003.22,0007.44,0002.35
2022-06-04 00:33:00,,0821.5,5.01,0.00,29.6,28.8,00.0,38.4,31.6,25.3,0000.0,0003.20,0007.52,0002.31
2022-06-04 00:34:00,,0821.5,4.99,0.00,29.6,28.8,00.0,38.4,31.6,25.4,0000.0,0003.18,0007.77,0002.28
2022-06-04 00:35:00,,0821.6,5.00,0.00,29.7,28.9,00.0,38.4,31.7,23.6,0000.0,0003.15,0007.92,0002.25
2022-06-04 00:36:00,,0821.6,5.00,0.00,29.7,28.9,00.0,38.5,31.7,24.8,0000.0,0003.11,0007.79,0002.22
2022-06-04 00:37:00,,0821.6,5.01,0.00,29.7,28.6,00.0,38.4,31.6,24.3,0000.0,0003.09,0007.71,0002.20
2022-06-04 00:38:00,,0821.6,4.99,0.00,29.7,27.8,00.0,38.4,31.4,24.0,0000.0,0003.06,0006.94,0002.18
2022-06-04 00:39:00,,0821.7,5.02,0.00,29.6,27.4,00.0,38.4,31.3,22.9,0000.0,0002.99,0006.37,0002.16
2022-06-04 00:40:00,,0821.7,4.99,0.00,29.5,27.4,00.0,38.4,31.2,25.3,0000.0,0002.91,0006.54,0002.15
2022-06-04 00:41:00,,0821.7,5.00,0.00,29.5,27.5,00.0,38.3,31.2,25.6,0000.0,0002.86,0007.16,0002.14
2022-06-04 00:42:00,,0821.7,5.00,0.00,29.5,27.6,00.0,38.3,31.3,25.4,0000.0,0002.87,0007.47,0002.13
2022-06-04 00:43:00,,0821.7,5.00,0.00,29.5,27.8,00.0,38.3,31.3,25.1,0000.0,0002.87,0007.37,0002.12
2022-06-04 00:44:00,,0821.7,5.01,0.00,29.5,27.9,00.0,38.4,31.3,25.5,0000.0,0002.87,0007.62,0002.12
2022-06-04 00:45:00,,0821.7,4.99,0.00,29.5,28.1,00.0,38.3,31.4,25.1,0000.0,0002.80,0007.35,0002.11
2022-06-04 00:46:00,,0821.8,5.00,0.00,29.5,28.2,00.0,38.3,31.4,25.2,0000.0,0002.76,0006.81,0002.11
2022-06-04 00:47:00,,0821.8,5.01,0.00,29.5,28.3,00.0,38.4,31.4,20.8,0000.0,0002.73,0006.70,0002.11
2022-06-04 00:48:00,,0821.9,5.00,0.00,29.5,28.4,00.0,38.4,31.5,19.6,0000.0,0002.78,0006.85,0002.14
2022-06-04 00:49:00,,0821.8,4.99,0.00,29.6,28.5,00.0,38.4,31.5,19.4,0000.0,0002.78,0007.16,0002.18
2022-06-04 00:50:00,,0821.9,5.01,0.00,29.6,28.6,00.0,38.4,31.5,20.4,0000.0,0002.84,0007.87,0002.23
2022-06-04 00:51:00,,0821.9,5.00,0.00,29.6,28.7,00.0,38.4,31.6,20.4,0000.0,0002.95,0008.04,0002.28
2022-06-04 00:52:00,,0821.7,5.00,0.00,29.6,28.7,00.0,38.4,31.6,20.1,0000.0,0003.02,0007.85,0002.32
2022-06-04 00:53:00,,0821.8,4.99,0.00,29.7,28.8,00.0,38.5,31.7,22.3,0000.0,0003.04,0008.03,0002.34
2022-06-04 00:54:00,,0821.8,5.00,0.00,29.7,28.9,00.0,38.5,31.7,21.9,0000.0,0003.04,0008.46,0002.37
2022-06-04 00:55:00,,0821.8,5.00,0.00,29.8,28.9,00.0,38.5,31.7,22.2,0000.0,0003.08,0008.12,0002.38
2022-06-04 00:56:00,,0821.8,5.00,0.00,29.7,28.3,00.0,38.5,31.6,22.5,0000.0,0003.13,0008.05,0002.40
2022-06-04 00:57:00,,0821.8,5.01,0.00,29.6,27.3,00.0,38.4,31.3,22.8,0000.0,0003.14,0008.34,0002.40
2022-06-04 00:58:00,,0821.8,5.00,0.00,29.6,26.8,00.0,38.3,31.2,22.2,0000.0,0003.18,0008.70,0002.39
2022-06-04 00:59:00,,0821.9,5.01,0.00,29.4,26.8,00.0,38.3,31.1,21.8,0000.0,0003.21,0008.78,0002.36
